KF8ADQ-10 Weather Reports


time (UTC)temp
C
wind
direction
speed
KPH
gust
KPH
rain 1hr
cm
rain 24hr
cm
rain mn
cm
humidity
%
barometer
mb
20260508053005 7 158 0.0 3.2 0.00 0.00 0.00 81 100.9
20260508050006 7 180 0.0 3.2 0.00 0.00 0.00 81 100.9
20260508043007 6 203 0.0 3.2 0.00 0.00 0.00 79 100.9
20260508040006 5 113 0.0 3.2 0.00 0.00 0.00 89 100.9
20260508033007 4 225 0.0 0.0 0.00 0.00 0.00 87 100.9
20260508030006 5 180 0.0 0.0 0.00 0.00 0.00 82 100.9
20260508023006 5 180 0.0 0.0 0.00 0.00 0.00 80 100.9
20260508020006 6 180 0.0 0.0 0.00 0.00 0.00 77 100.9
20260508013006 7 180 0.0 6.4 0.00 0.00 0.00 67 100.9
20260508010006 8 180 0.0 9.7 0.00 0.00 0.00 54 100.8
20260508003006 10 225 0.0 11.3 0.00 0.00 0.00 49 100.8
20260508000013 12 293 0.0 16.1 0.00 0.00 0.00 44 100.8
20260507233005 12 180 0.0 20.9 0.00 0.00 0.00 45 100.8
20260507230005 12 248 0.0 20.9 0.00 0.00 0.00 43 100.8
20260507223006 13 248 0.0 16.1 0.00 0.00 0.00 51 100.8
20260507220006 13 338 0.0 16.1 0.00 0.00 0.00 47 100.7
20260507213006 13 248 0.0 16.1 0.00 0.00 0.00 45 100.7
20260507210006 13 225 0.0 14.5 0.00 0.00 0.00 45 100.7
20260507203006 13 180 0.0 14.5 0.00 0.00 0.00 45 100.7
20260507200006 16 270 0.0 11.3 0.00 0.00 0.00 40 100.7
20260507193006 16 293 0.0 14.5 0.00 0.00 0.00 42 100.7
20260507190006 13 248 0.0 14.5 0.00 0.00 0.00 48 100.7
20260507183007 15 203 0.0 14.5 0.00 0.00 0.00 45 100.7
20260507180006 15 23 0.0 14.5 0.00 0.00 0.00 45 100.7
20260507173006 15 203 0.0 12.9 0.00 0.00 0.00 44 100.7
20260507170006 13 203 0.0 12.9 0.00 0.00 0.00 46 100.8
20260507163007 13 248 0.0 11.3 0.00 0.00 0.00 47 100.8
20260507160006 15 90 0.0 11.3 0.00 0.00 0.00 46 100.8
20260507153006 13 203 0.0 11.3 0.00 0.00 0.00 49 100.8
20260507150006 12 135 0.0 11.3 0.00 0.00 0.00 54 100.8
20260507143006 12 270 0.0 11.3 0.00 0.00 0.00 61 100.8
20260507140006 11 270 0.0 8.0 0.00 0.00 0.00 70 100.8
20260507133007 10 90 0.0 6.4 0.00 0.00 0.00 75 100.9
20260507130006 9 113 0.0 6.4 0.00 0.00 0.00 77 100.9
20260507123006 8 248 0.0 6.4 0.00 0.00 0.00 80 100.9
20260507120006 8 180 0.0 3.2 0.00 0.00 0.00 82 100.9
20260507113006 6 135 0.0 0.0 0.00 0.00 0.00 93 100.9
20260507110009 3 203 0.0 0.0 0.00 0.00 0.00 99 100.8
20260507103007 3 180 0.0 0.0 0.00 0.00 0.00 99 100.8
20260507100006 3 203 0.0 0.0 0.00 0.00 0.00 99 100.8
20260507093006 3 180 0.0 0.0 0.00 0.00 0.00 99 100.8
20260507090006 2 180 0.0 0.0 0.00 0.00 0.00 99 100.8
20260507083006 2 180 0.0 0.0 0.00 0.00 0.00 99 100.8
20260507080006 2 180 0.0 0.0 0.00 0.00 0.00 99 100.8
20260507073006 3 180 0.0 0.0 0.00 0.00 0.00 99 100.9
20260507070010 3 180 0.0 0.0 0.00 0.00 0.00 98 100.9
20260507063006 3 135 0.0 0.0 0.00 0.00 0.00 96 100.9
20260507060007 4 180 0.0 0.0 0.00 0.00 0.00 96 100.9